EW5390 Weather Reports


Display with metric or nautical units.
time (UTC)temp
F
wind
direction
speed
MPH
gust
MPH
rain 1hr
in
rain 24hr
in
rain mn
in
humidity
%
barometer
mb
20260903082051 73 0 0.0 0.0 0.01 0.16 0.01 98 1017.0
20260903081559 73 0 0.0 0.0 0.01 0.16 0.01 98 1017.2
20260903081054 74 0 0.0 0.0 0.01 0.16 0.01 98 1017.3
20260903080552 74 0 0.0 0.0 0.01 0.16 0.01 98 1017.3
20260903080104 74 0 0.0 0.0 0.01 0.16 0.01 98 1017.5
20260903075552 74 0 0.0 0.0 0.01 0.16 0.01 98 1017.4
20260903075051 74 0 0.0 0.0 0.01 0.16 0.01 98 1017.4
20260903074607 74 0 0.0 0.0 0.01 0.16 0.01 98 1017.6
20260903074054 74 0 0.0 0.0 0.01 0.16 0.01 98 1017.3
20260903073551 74 0 0.0 1.0 0.01 0.16 0.01 98 1017.1
20260903073100 74 0 0.0 1.0 0.01 0.16 0.01 98 1017.3
20260903072554 74 0 0.0 1.0 0.01 0.16 0.01 98 1017.4
20260903072056 74 356 0.0 1.0 0.00 0.15 0.00 98 1017.8
20260903071601 74 0 0.0 2.0 0.00 0.15 0.00 98 1018.0
20260903071051 74 0 0.0 2.0 0.00 0.15 0.00 98 1018.0
20260903070554 74 356 1.0 2.0 0.00 0.15 0.00 98 1017.6
20260903070103 74 19 0.0 1.0 0.00 0.15 0.00 98 1017.2
20260903065555 74 19 1.0 1.0 0.00 0.15 0.00 98 1017.0
20260903065051 74 21 0.0 0.0 0.00 0.15 0.00 98 1016.8
20260903064609 74 0 0.0 0.0 0.00 0.15 0.00 98 1016.7
20260903064051 74 0 0.0 0.0 0.00 0.15 0.00 98 1016.9
20260903063550 74 0 0.0 1.0 0.00 0.15 0.00 98 1016.6
20260903063105 74 0 0.0 1.0 0.00 0.15 0.00 98 1016.7
20260903062554 74 21 0.0 1.0 0.00 0.15 0.00 98 1016.7
20260903062054 74 354 0.0 1.0 0.00 0.15 0.00 98 1016.8
20260903061558 73 0 0.0 0.0 0.00 0.15 0.00 98 1016.6
20260903061051 73 351 0.0 1.0 0.00 0.15 0.00 98 1016.3
20260903060551 74 0 0.0 1.0 0.00 0.15 0.00 98 1016.3
20260903060109 73 0 0.0 1.0 0.00 0.15 0.00 98 1016.4
20260903055553 73 0 0.0 1.0 0.00 0.15 0.00 98 1016.4
20260903055051 73 0 0.0 1.0 0.00 0.15 0.00 98 1016.3
20260903054623 73 0 0.0 1.0 0.00 0.15 0.00 98 1016.4
20260903054054 73 350 0.0 1.0 0.00 0.15 0.00 98 1016.5
20260903053554 73 0 0.0 1.0 0.00 0.15 0.00 98 1016.6
20260903053108 73 0 0.0 1.0 0.00 0.15 0.00 98 1016.9
20260903052554 73 0 0.0 1.0 0.00 0.15 0.00 98 1017.0
20260903052057 73 350 0.0 0.0 0.00 0.15 0.00 98 1016.9
20260903051559 73 0 0.0 0.0 0.00 0.15 0.00 98 1017.4
20260903051051 73 0 0.0 0.0 0.00 0.15 0.00 98 1017.5
20260903050551 73 0 0.0 0.0 0.00 0.15 0.00 98 1017.4
20260903045552 73 0 0.0 0.0 0.00 0.18 0.00 98 1017.4
20260903045051 73 0 0.0 0.0 0.00 0.18 0.00 98 1017.3
20260903044603 73 0 0.0 0.0 0.00 0.18 0.00 98 1017.4
20260903044054 73 0 0.0 1.0 0.00 0.18 0.00 98 1017.6
20260903043553 74 0 0.0 1.0 0.00 0.18 0.00 98 1017.7
20260903043100 73 0 0.0 0.0 0.00 0.18 0.00 98 1017.7
20260903042558 73 0 0.0 0.0 0.00 0.18 0.00 98 1017.3
20260903042052 73 0 0.0 0.0 0.00 0.18 0.00 98 1017.4
20260903041612 74 0 0.0 0.0 0.00 0.18 0.00 98 1017.5
20260903041050 74 0 0.0 1.0 0.00 0.18 0.00 98 1017.7
20260903040551 74 0 0.0 1.0 0.00 0.18 0.00 98 1017.6
20260903040126 74 350 0.0 0.0 0.00 0.18 0.00 98 1017.7
20260903035551 74 0 0.0 1.0 0.00 0.18 0.18 98 1018.0
20260903035051 74 0 0.0 1.0 0.00 0.18 0.18 98 1018.0
20260903034604 74 350 0.0 1.0 0.00 0.18 0.18 98 1018.1
20260903034051 74 350 0.0 0.0 0.00 0.18 0.18 98 1018.3
20260903033551 74 0 0.0 0.0 0.00 0.18 0.18 98 1017.8
20260903033102 74 0 0.0 0.0 0.00 0.18 0.18 98 1018.0
20260903032552 74 0 0.0 0.0 0.00 0.18 0.18 98 1017.8
20260903032055 74 0 0.0 0.0 0.00 0.18 0.18 98 1018.0
20260903031600 74 0 0.0 0.0 0.00 0.18 0.18 98 1017.8
20260903031055 74 0 0.0 0.0 0.00 0.18 0.18 98 1017.5
20260903030551 74 0 0.0 0.0 0.00 0.18 0.18 98 1017.7
20260903030057 74 0 0.0 0.0 0.00 0.18 0.18 98 1017.8
20260903025551 74 0 0.0 0.0 0.00 0.62 0.18 98 1017.7
20260903025055 74 0 0.0 0.0 0.00 0.62 0.18 98 1017.8
20260903024600 74 350 0.0 0.0 0.00 0.62 0.18 98 1018.0
20260903024051 74 0 0.0 0.0 0.00 0.62 0.18 98 1018.1
20260903023551 74 0 0.0 0.0 0.00 0.62 0.18 98 1018.1
20260903023102 74 0 0.0 0.0 0.00 0.62 0.18 98 1017.9
20260903022555 74 0 0.0 0.0 0.00 0.62 0.18 98 1017.8
20260903022052 74 0 0.0 0.0 0.00 0.62 0.18 98 1017.8
20260903021603 74 0 0.0 0.0 0.00 0.62 0.18 98 1018.0
20260903021052 74 0 0.0 0.0 0.00 0.62 0.18 98 1017.9
20260903020551 74 0 0.0 0.0 0.00 0.62 0.18 98 1018.0
20260903020058 74 0 0.0 0.0 0.00 0.62 0.18 98 1018.0
20260903015553 74 0 0.0 0.0 0.00 0.62 0.18 98 1017.9
20260903015052 74 0 0.0 0.0 0.00 0.62 0.18 97 1018.0
20260903014604 74 0 0.0 0.0 0.00 0.62 0.18 97 1017.9
20260903014056 74 0 0.0 0.0 0.00 0.62 0.18 97 1017.8
20260903013554 74 0 0.0 0.0 0.00 0.62 0.18 97 1017.8
20260903013106 74 0 0.0 0.0 0.00 0.62 0.18 97 1017.9
20260903012552 74 0 0.0 0.0 0.00 0.62 0.18 97 1017.9
20260903012053 74 0 0.0 0.0 0.00 0.62 0.18 97 1017.8
20260903011607 74 0 0.0 0.0 0.00 0.62 0.18 97 1017.9
20260903011058 74 0 0.0 0.0 0.00 0.62 0.18 97 1017.8
20260903010553 74 0 0.0 0.0 0.00 0.62 0.18 97 1017.7
20260903010110 74 0 0.0 0.0 0.00 0.62 0.18 97 1017.7
20260903005551 74 0 0.0 0.0 0.00 0.62 0.18 97 1017.7
20260903005057 74 0 0.0 0.0 0.00 0.62 0.18 97 1017.9
20260903004602 74 0 0.0 0.0 0.00 0.62 0.18 97 1018.0
20260903004051 74 0 0.0 0.0 0.00 0.62 0.18 97 1018.1
20260903003550 74 0 0.0 0.0 0.00 0.62 0.18 97 1017.9
20260903003101 74 0 0.0 0.0 0.00 0.62 0.18 97 1017.9
20260903002554 74 0 0.0 0.0 0.00 0.62 0.18 97 1017.8
20260903002054 74 0 0.0 0.0 0.00 0.62 0.18 97 1017.8
20260903001606 74 0 0.0 0.0 0.00 0.62 0.18 97 1017.8
20260903001051 74 0 0.0 0.0 0.00 0.62 0.18 97 1017.7
20260903000554 74 0 0.0 0.0 0.00 0.62 0.18 97 1017.4
20260903000059 74 0 0.0 0.0 0.00 0.62 0.18 97 1017.5
20260902235552 74 0 0.0 0.0 0.00 0.62 0.18 97 1017.5
20260902235054 74 0 0.0 0.0 0.00 0.62 0.18 97 1017.5
20260902234558 74 0 0.0 0.0 0.00 0.62 0.18 97 1017.5
20260902234055 74 0 0.0 0.0 0.00 0.62 0.18 97 1017.5
20260902233551 74 0 0.0 0.0 0.00 0.62 0.18 97 1017.6
20260902233058 74 0 0.0 0.0 0.00 0.62 0.18 97 1017.8
20260902232554 74 0 0.0 0.0 0.00 0.62 0.18 97 1017.7
20260902232050 74 0 0.0 0.0 0.00 0.62 0.18 97 1017.7
20260902231602 74 0 0.0 0.0 0.00 0.62 0.18 97 1017.7
20260902231055 74 0 0.0 1.0 0.00 0.62 0.18 97 1017.7
20260902230558 74 0 0.0 1.0 0.00 0.62 0.18 97 1017.7
20260902230125 75 0 0.0 0.0 0.00 0.62 0.18 97 1017.7
20260902225551 75 0 0.0 0.0 0.00 0.62 0.18 97 1017.7
20260902225054 75 0 0.0 0.0 0.00 0.62 0.18 97 1017.7
20260902224606 75 0 0.0 0.0 0.00 0.62 0.18 97 1017.6
20260902224055 75 0 0.0 0.0 0.00 0.62 0.18 97 1017.7
20260902223555 75 0 0.0 1.0 0.00 0.62 0.18 97 1017.7
20260902223102 75 0 0.0 1.0 0.00 0.62 0.18 97 1017.7
20260902222553 75 0 0.0 1.0 0.00 0.62 0.18 97 1017.7
20260902222054 75 0 0.0 0.0 0.00 0.62 0.18 96 1017.8
20260902221601 75 0 0.0 0.0 0.00 0.62 0.18 96 1017.8
20260902221053 75 0 0.0 0.0 0.00 0.62 0.18 96 1017.8
20260902220555 75 0 0.0 0.0 0.00 0.62 0.18 96 1017.8
20260902220117 75 0 0.0 0.0 0.00 0.62 0.18 96 1017.9
20260902215554 75 0 0.0 0.0 0.00 0.62 0.18 96 1017.9
20260902215056 75 0 0.0 1.0 0.00 0.62 0.18 96 1018.0
20260902214633 75 0 0.0 1.0 0.00 0.62 0.18 96 1018.0
20260902214051 75 0 0.0 0.0 0.00 0.62 0.18 96 1018.3
20260902213550 75 0 0.0 0.0 0.00 0.62 0.18 96 1018.3
20260902213100 75 0 0.0 0.0 0.00 0.62 0.18 96 1018.2
20260902212555 75 0 0.0 1.0 0.00 0.62 0.18 96 1018.2
20260902212055 75 0 0.0 1.0 0.00 0.62 0.18 96 1018.2
20260902211558 75 0 0.0 1.0 0.00 0.62 0.18 96 1018.3
20260902211053 75 0 0.0 1.0 0.00 0.62 0.18 97 1018.2
20260902210554 75 0 0.0 1.0 0.00 0.62 0.18 96 1018.4
20260902210135 75 0 0.0 1.0 0.00 0.62 0.18 97 1018.6
20260902205551 75 0 0.0 1.0 0.00 0.62 0.18 97 1018.6
20260902205051 75 0 0.0 0.0 0.00 0.62 0.18 97 1018.4
20260902204606 75 0 0.0 0.0 0.00 0.62 0.18 97 1018.2
20260902204051 75 0 0.0 2.0 0.00 0.62 0.18 97 1018.1
20260902203554 75 0 0.0 3.0 0.00 0.62 0.18 97 1017.8
20260902203106 75 0 1.0 3.0 0.00 0.62 0.18 97 1017.3
20260902202554 75 86 0.0 1.0 0.01 0.62 0.18 97 1017.0
20260902202051 75 0 0.0 1.0 0.01 0.62 0.18 97 1016.8
20260902201621 74 0 0.0 0.0 0.02 0.62 0.18 97 1017.0
20260902201057 74 0 0.0 0.0 0.04 0.62 0.18 96 1016.8
20260902200553 74 0 0.0 1.0 0.06 0.62 0.18 96 1016.7
20260902200112 74 0 0.0 2.0 0.06 0.62 0.18 96 1016.1
20260902195552 75 0 0.0 2.0 0.07 0.62 0.18 96 1015.9
20260902195053 74 0 0.0 2.0 0.07 0.62 0.18 96 1016.1
20260902194605 74 0 0.0 1.0 0.09 0.62 0.18 96 1016.4
20260902194056 74 72 0.0 1.0 0.15 0.62 0.18 96 1016.5
20260902193550 75 0 0.0 1.0 0.15 0.62 0.18 96 1016.7
20260902193104 75 0 0.0 1.0 0.15 0.62 0.18 96 1016.8
20260902192553 75 0 0.0 1.0 0.14 0.61 0.17 95 1016.7
20260902192054 75 169 0.0 1.0 0.14 0.61 0.17 95 1017.6
20260902191604 75 167 0.0 1.0 0.13 0.60 0.16 95 1018.0
20260902191054 76 0 0.0 1.0 0.11 0.58 0.14 95 1018.5
20260902190557 76 172 0.0 1.0 0.09 0.56 0.12 94 1019.2
20260902190128 76 0 0.0 1.0 0.09 0.56 0.12 94 1019.4
20260902185549 77 173 0.0 2.0 0.08 0.55 0.11 93 1019.6
20260902185054 77 0 0.0 2.0 0.08 0.55 0.11 93 1019.6
20260902184611 77 174 1.0 2.0 0.06 0.52 0.09 91 1019.4
20260902184053 78 353 0.0 2.0 0.00 0.47 0.03 90 1019.9
20260902183554 78 346 1.0 2.0 0.00 0.47 0.03 91 1019.9
20260902183105 78 344 0.0 2.0 0.00 0.47 0.03 90 1019.7
20260902182550 79 0 0.0 1.0 0.00 0.47 0.03 90 1019.4
20260902182055 79 88 0.0 1.0 0.00 0.47 0.03 90 1019.3
20260902181623 79 136 0.0 1.0 0.00 0.47 0.03 90 1019.3
20260902181051 79 0 0.0 1.0 0.00 0.47 0.03 90 1019.2
20260902180553 79 115 0.0 1.0 0.00 0.47 0.03 89 1019.3
20260902175553 79 48 1.0 2.0 0.00 0.47 0.03 89 1019.3
20260902175054 79 46 0.0 2.0 0.00 0.47 0.03 88 1019.5
20260902174558 79 0 0.0 2.0 0.00 0.47 0.03 88 1019.5
20260902174053 79 197 0.0 3.0 0.00 0.47 0.03 88 1019.3
20260902173551 79 59 1.0 4.0 0.00 0.47 0.03 89 1019.3
20260902173102 79 60 2.0 4.0 0.00 0.47 0.03 89 1019.3
20260902172550 79 63 1.0 3.0 0.00 0.47 0.03 89 1019.3
20260902172053 79 55 1.0 3.0 0.00 0.47 0.03 90 1019.4
20260902171620 79 55 1.0 3.0 0.00 0.47 0.03 90 1019.4
20260902171051 79 73 1.0 3.0 0.00 0.47 0.03 90 1019.4
20260902170551 79 128 0.0 3.0 0.00 0.47 0.03 89 1019.3
20260902170103 79 20 1.0 3.0 0.00 0.47 0.03 90 1019.2
20260902165554 79 80 1.0 3.0 0.00 0.47 0.03 90 1019.1
20260902165052 79 63 1.0 3.0 0.00 0.47 0.03 89 1018.9
20260902164604 79 0 0.0 1.0 0.00 0.47 0.03 89 1018.9
20260902164054 79 0 0.0 1.0 0.00 0.47 0.03 90 1018.9
20260902163555 79 53 0.0 2.0 0.00 0.47 0.03 90 1018.9
20260902163106 79 0 0.0 2.0 0.00 0.47 0.03 90 1019.0
20260902162558 79 51 1.0 3.0 0.00 0.47 0.03 89 1019.1
20260902162057 79 56 0.0 3.0 0.00 0.47 0.03 90 1019.0
20260902161605 79 53 1.0 3.0 0.00 0.47 0.03 89 1019.0
20260902161054 79 68 0.0 3.0 0.00 0.47 0.03 90 1019.1
20260902160551 79 0 1.0 4.0 0.00 0.47 0.03 90 1019.2
20260902155554 79 60 2.0 5.0 0.00 0.47 0.03 91 1019.3
20260902155053 79 58 1.0 6.0 0.00 0.47 0.03 91 1019.2
20260902154556 79 0 2.0 6.0 0.00 0.47 0.03 91 1019.1
20260902154050 79 300 2.0 6.0 0.00 0.47 0.03 91 1019.1
20260902153553 78 64 1.0 5.0 0.00 0.47 0.03 92 1019.1
20260902153104 78 71 1.0 5.0 0.00 0.47 0.03 91 1019.0
20260902152555 78 108 2.0 5.0 0.00 0.47 0.03 92 1019.1
20260902152055 78 57 1.0 5.0 0.00 0.47 0.03 92 1019.2
20260902151604 78 59 2.0 4.0 0.00 0.47 0.03 91 1019.2
20260902151051 78 65 1.0 3.0 0.00 0.47 0.03 91 1019.1
20260902150557 78 64 0.0 3.0 0.00 0.47 0.03 91 1019.1
20260902150113 79 94 1.0 3.0 0.00 0.47 0.03 91 1019.1
20260902145551 79 0 1.0 3.0 0.00 0.47 0.03 92 1019.2
20260902145053 78 138 1.0 3.0 0.00 0.47 0.03 92 1019.1
20260902144607 78 48 0.0 2.0 0.00 0.47 0.03 93 1019.1
20260902144054 78 79 0.0 5.0 0.00 0.47 0.03 93 1019.1
20260902143555 77 77 1.0 5.0 0.00 0.47 0.03 93 1019.1
20260902143108 77 56 1.0 4.0 0.00 0.47 0.03 94 1019.1
20260902142554 76 234 1.0 3.0 0.00 0.47 0.03 94 1019.0
20260902142054 76 62 1.0 4.0 0.00 0.47 0.03 94 1019.0
20260902141606 76 60 1.0 4.0 0.00 0.47 0.03 94 1018.9
20260902141054 76 70 2.0 4.0 0.00 0.47 0.03 95 1018.9
20260902140555 75 63 2.0 4.0 0.00 0.47 0.03 96 1019.1
20260902140100 75 70 0.0 5.0 0.00 0.47 0.03 96 1019.2
20260902135555 75 81 1.0 6.0 0.00 0.47 0.03 96 1019.2
20260902135050 75 53 3.0 6.0 0.00 0.47 0.03 96 1019.1
20260902134613 75 61 2.0 5.0 0.00 0.47 0.03 96 1019.1
20260902134053 75 72 3.0 5.0 0.00 0.47 0.03 96 1019.0
20260902133553 74 67 1.0 3.0 0.00 0.47 0.03 97 1018.8
20260902133102 74 0 2.0 3.0 0.00 0.47 0.03 97 1018.8
20260902132554 74 65 0.0 3.0 0.00 0.47 0.03 97 1018.9
20260902132053 74 0 1.0 3.0 0.00 0.47 0.03 97 1018.8
20260902131602 74 68 2.0 3.0 0.00 0.47 0.03 97 1018.7
20260902131054 74 72 1.0 3.0 0.00 0.47 0.03 97 1018.7
20260902130551 74 61 1.0 3.0 0.00 0.47 0.03 97 1018.6
20260902130059 74 0 1.0 5.0 0.00 0.47 0.03 97 1018.6
20260902125550 73 268 2.0 5.0 0.00 0.47 0.03 97 1018.5
20260902125051 73 60 1.0 5.0 0.00 0.47 0.03 98 1018.5
20260902124556 73 70 0.0 4.0 0.00 0.47 0.03 98 1018.5
20260902124055 73 70 2.0 4.0 0.00 0.47 0.03 98 1018.5
20260902123553 73 67 1.0 3.0 0.00 0.47 0.03 98 1018.5
20260902123103 73 62 0.0 3.0 0.00 0.47 0.03 98 1018.6
20260902122554 73 66 1.0 3.0 0.00 0.47 0.03 98 1018.5
20260902122054 73 57 2.0 3.0 0.00 0.47 0.03 98 1018.5
20260902121600 73 63 1.0 3.0 0.00 0.47 0.03 98 1018.5
20260902121054 73 63 1.0 3.0 0.00 0.47 0.03 98 1018.5
20260902120554 73 62 1.0 3.0 0.00 0.47 0.03 98 1018.5
20260902120101 73 70 0.0 2.0 0.00 0.47 0.03 98 1018.5
20260902115553 73 0 0.0 4.0 0.00 0.47 0.03 98 1018.5
20260902115053 73 66 0.0 4.0 0.00 0.47 0.03 98 1018.6
20260902114557 73 66 2.0 4.0 0.00 0.47 0.03 98 1018.6
20260902114051 73 69 0.0 1.0 0.00 0.47 0.03 98 1018.5
20260902113550 73 68 0.0 1.0 0.00 0.47 0.03 98 1018.5
20260902113054 73 0 0.0 1.0 0.00 0.47 0.03 98 1018.5
20260902112553 72 68 0.0 1.0 0.00 0.47 0.03 98 1018.5
20260902112054 72 0 0.0 1.0 0.00 0.47 0.03 98 1018.4
20260902111601 72 0 0.0 2.0 0.00 0.47 0.03 98 1018.3
20260902111051 72 0 0.0 2.0 0.00 0.47 0.03 98 1018.4
20260902110554 72 0 1.0 2.0 0.00 0.47 0.03 98 1018.4
20260902110057 72 65 0.0 2.0 0.00 0.47 0.03 98 1018.3
20260902105552 72 0 1.0 2.0 0.00 0.47 0.03 98 1018.2
20260902105053 72 64 0.0 1.0 0.00 0.47 0.03 98 1018.2
20260902104556 72 65 0.0 1.0 0.00 0.47 0.03 98 1018.1
20260902104053 72 64 0.0 1.0 0.00 0.47 0.03 98 1018.1
20260902103550 72 0 0.0 1.0 0.00 0.47 0.03 98 1018.0
20260902103055 72 64 0.0 3.0 0.00 0.47 0.03 98 1018.1
20260902102555 72 0 1.0 3.0 0.00 0.47 0.03 98 1018.0
20260902102053 72 63 2.0 3.0 0.00 0.47 0.03 98 1017.8
20260902101600 72 0 1.0 2.0 0.00 0.47 0.03 98 1017.9
20260902101053 72 33 0.0 1.0 0.00 0.47 0.03 98 1017.8
20260902100553 72 33 0.0 1.0 0.00 0.47 0.03 98 1017.7
20260902100101 72 33 0.0 1.0 0.00 0.47 0.03 98 1017.7
20260902095551 72 33 0.0 1.0 0.00 0.47 0.03 98 1017.7
20260902095054 72 33 0.0 1.0 0.00 0.47 0.03 98 1017.7
20260902094558 72 33 0.0 1.0 0.00 0.47 0.03 98 1017.7
20260902094051 72 33 1.0 1.0 0.00 0.47 0.03 98 1017.7
20260902093551 72 0 0.0 0.0 0.00 0.47 0.03 98 1017.6
20260902093058 72 0 0.0 0.0 0.00 0.47 0.03 98 1017.6
20260902092554 72 0 0.0 0.0 0.00 0.47 0.03 98 1017.6
20260902092054 72 0 0.0 0.0 0.00 0.47 0.03 98 1017.5
20260902091600 72 0 0.0 0.0 0.00 0.47 0.03 98 1017.5
20260902091053 72 0 0.0 0.0 0.00 0.47 0.03 98 1017.5
20260902090556 72 0 0.0 0.0 0.00 0.47 0.03 98 1017.5
20260902090058 72 0 0.0 0.0 0.00 0.47 0.03 98 1017.5
20260902085554 72 0 0.0 0.0 0.00 0.47 0.03 98 1017.5
20260902085053 72 0 0.0 0.0 0.00 0.47 0.03 98 1017.4
20260902084609 72 0 0.0 0.0 0.00 0.47 0.03 98 1017.4
20260902084054 72 0 0.0 0.0 0.00 0.47 0.03 98 1017.3
20260902083554 72 0 0.0 1.0 0.00 0.47 0.03 98 1017.3
20260902083055 72 0 0.0 1.0 0.00 0.47 0.03 98 1017.2
20260902082553 72 0 0.0 0.0 0.00 0.47 0.03 98 1017.2